Regional Weather Roundup
Issued by NWS Wakefield, VA

Home | Current Version | Previous Version | Text Only | Print | Product List | Glossary Off
Versions: 1 2 3 4 5 6 7 8 9 10 11 12 13 14 15 16 17 18 19 20 21 22 23 24 25 26 27 28 29 30 31 32 33 34 35 36 37 38 39 40 41 42 43 44 45 46 47 48 49 50

000
ASUS41 KAKQ 252110
RWRAKQ

REGIONAL WEATHER ROUNDUP
NATIONAL WEATHER SERVICE WAKEFIELD VA
400 PM EST THU DEC 25 2014

Note: "fair" indicates few or no clouds below 12,000 feet with no
significant weather and/or obstructions to visibility. * = Denotes
station may not report precipitation (e.g., rain,snow,etc.),
thunder or fog.

VAZ042-051-052>054-056-252200-
NORTHERN VIRGINIA

CITY           SKY/WX    TMP DP  RH WIND       PRES   REMARKS
WASH NATIONAL  PTCLDY    55  31  39 NW13G18   30.06R
DULLES         PTCLDY    50  31  48 NW12      30.07R
FORT BELVOIR   CLEAR     54  30  40 NW15      30.06R
QUANTICO         N/A     56  29  35 N10       30.07R
FREDERICKSBRG* CLEAR     57  31  36 W8        30.06R
STAFFORD*      CLEAR     55  26  32 W5        30.10R
WARRENTON      CLEAR     55  37  50 NW7       30.05R
CULPEPER*      CLEAR     55  28  35 NW5       30.07R
MANASSAS*      CLEAR     54  30  40 NW12G20   30.05
LEESBURG*      CLEAR     50  34  53 NW14G22   30.07R
WINCHESTER     CLEAR     48  28  46 NW12G18   30.07R
FRONT ROYAL*   CLEAR     46  30  53 W8        30.06R
LURAY*         CLEAR     52  32  46 W6        30.06S
$$

VAZ048-049-060>072-079>083-252200-
CENTRAL AND SOUTH CENTRAL VIRGINIA

CITY           SKY/WX    TMP DP  RH WIND       PRES   REMARKS
RICHMOND       CLEAR     57  30  35 W10       30.09R
CHESTERFIELD*  CLEAR     55  28  35 NW9       30.10R
PETERSBURG*    CLEAR     56  30  36 W9        30.10R
HANOVER        CLEAR     55  32  41 W6        30.09R
TAPPAHANNOCK*  CLEAR     57  26  30 W6        30.07R
QUINTON*       CLEAR     55  32  42 W8        30.08R
CHARLOTTSVILLE CLEAR     54  28  36 W8        30.06R
GORDONSVILLE*  CLEAR     53  29  39 W9        30.06R
ORANGE*        CLEAR     54  32  43 SW12      30.07R
LOUISA*        CLEAR     55  30  38 W6        30.06R
BUMPASS*       CLEAR     54  31  40 W5        30.07R
FARMVILLE*     CLEAR     58  31  35 W5        30.08R
CREWE*         CLEAR     55  29  38 NW7       30.09R
FORT PICKETT*  CLEAR     54  31  42 W8G16     30.10R
CHASE CITY*    CLEAR     55  34  45 W5        30.10R
CLARKSVILLE*   CLEAR     54  32  43 CALM      30.10R
SOUTH HILL*    CLEAR     53  32  44 W3        30.16R
LAWRENCEVILLE* CLEAR     54  34  47 W8        30.09R
EMPORIA*       CLEAR     54  32  43 W6        30.11R
$$

VAZ088>098-252200-
SOUTHEAST VIRGINIA

CITY           SKY/WX    TMP DP  RH WIND       PRES   REMARKS
NORFOLK        CLEAR     57  32  38 VRB6      30.06R
VIRGINIA BEACH CLEAR     57  36  45 W12       30.06R
NORFOLK NAVAL  CLEAR     58  35  42 W10       30.09R
WEST POINT*    CLEAR     58  28  32 W9        30.09R
SALUDA*        FAIR      54  33  44 NW8       30.06R
NEWPORT NEWS   CLEAR     58  35  42 W10       30.07R
LANGLEY AFB    CLEAR     56  34  43 NW12      30.07R
FORT EUSTIS    CLEAR     55  54  97 NW9       30.06R
WILLIAMSBURG*  CLEAR     61  36  39 W10G17    30.08R
HR EXEC AP*    CLEAR     55  36  47 W10       30.10R
FRANKLIN*      CLEAR     55  36  47 NW8       30.09R
WAKEFIELD      CLEAR     56  32  40 W7        30.08R
$$

VAZ020-022-025-037-045-252200-
WEST CENTRAL AND SOUTHWEST VIRGINIA

CITY           SKY/WX    TMP DP  RH WIND       PRES   REMARKS
STAUNTON*      CLEAR     49  28  43 W8        30.09R
WAYNESBORO*    CLEAR     47  29  49 W8        30.07R
HOT SPRINGS VA CLEAR     33  27  77 W21G31    30.02R WCI  21
LYNCHBURG      CLEAR     50  29  44 VRB6G16   30.10R
DANVILLE       SUNNY     54  31  41 W10       30.11R
SOUTH BOSTON*  CLEAR     54  31  42 W7        30.11S
MARTINSVILLE   SUNNY     53  31  43 N8        30.13R
ROANOKE        MOSUNNY   48  29  47 W10       30.13R
BLACKSBURG     SUNNY     42  28  59 W8G20     30.13S
DUBLIN*        SUNNY     45  32  59 NW5       30.12S
MARION*        SUNNY     44  29  57 NW12G20   30.13S
HILLSVILLE*    SUNNY     41  29  62 NW9       30.09R
RICHLANDS*     CLEAR     41  28  60 W5        30.12S
WISE*          SUNNY     43  30  61 SW3       30.12S
ABINGDON*      SUNNY     45  31  58 W8        30.14S
$$

MDZ021>025-VAZ099-100-252200-
SOUTHERN MARYLAND AND THE DELMARVA PENINSULA

CITY           SKY/WX    TMP DP  RH WIND       PRES   REMARKS
PATUXENT RIVER CLEAR     54  30  40 NW12      30.05R
BAY BRIDGE APT   N/A     50  32  50 W12       30.04R
LEONARDTOWN    CLEAR     54  30  40 W7        30.06R
DOVER          CLEAR     51  28  40 W16G24    30.00R
GEORGETOWN     CLEAR     53  30  41 NW9       30.03R
EASTON         PTCLDY    54  36  50 NW7       30.08
CAMBRIDGE      CLEAR     54  32  43 NW10G16   30.04R
SALISBURY      CLEAR     55  31  39 NW9       30.04R
OCEAN CITY     CLEAR     52  30  43 NW15G24   30.03R
WALLOPS ISLAND CLEAR     53  32  44 NW12G21   30.05R
ACCOMACK*      CLEAR     52  32  46 NW6       30.06R
$$

NCZ012>017-030>032-252200-
NORTH CENTRAL AND EASTERN NORTH CAROLINA

CITY           SKY/WX    TMP DP  RH WIND       PRES   REMARKS
ROANOKE RAPIDS CLEAR     54  32  43 NW6       30.10R
RALEIGH        SUNNY     55  31  39 NW8       30.12R
ELIZABETH CITY CLEAR     59  36  42 NW13      30.08R
AHOSKIE*       CLEAR     54  33  45 CALM      30.10R
EDENTON*       CLEAR     57  38  49 NW9G20    30.09R
CURRITUCK*     CLEAR     58  34  40 W9        30.08R
KILL DEVIL HLS CLEAR     55  43  63 W5        30.07R
MANTEO         CLEAR     55  41  58 NW8       30.08R
CAPE HATTERAS  CLEAR     56  44  64 VRB5      30.08R
TARBORO*       CLEAR     58  36  43 W8        30.10R
GOLDSBORO      SUNNY     59  40  47 NW9       30.08R
WASHINGTON     CLEAR     57  36  45 NW9G16    30.09R
GREENVILLE     CLEAR     59  34  38 NW9G16    30.11R
NEW BERN       CLEAR     61  37  41 NW9       30.10R
WILMINGTON     SUNNY     61  43  51 W7        30.10R
$$

VAZ048-252200-
ELSEWHERE

CITY           SKY/WX    TMP DP  RH WIND       PRES   REMARKS
HARRISBURG PA  MOCLDY    47  30  51 W17       30.02R
BALTIMORE      PTCLDY    50  29  44 W16G30    30.03R
ANNAPOLIS      CLEAR     52  30  43 NW9       30.04R
ANDREWS AFB    CLEAR     51  31  46 NW14      30.05R
PHILADELPHIA   PTCLDY    52  29  41 W18G25    29.99R
HENDERSON NC   SUNNY     54  29  38 W7        30.11R
GREENSBORO     SUNNY     52  31  44 W13       30.11R
ROCKY MOUNT    CLEAR     57  34  41 W8        30.10R
$$

VAZ100-252200-
MARINE

STATION/POSITION TIME  TEMP    WIND        PRES    WAVE   SWELL
                       AIR SEA DIR/SP/G            HT/PER HT/PER
                 (UTC) (F)     (DEG/KT/KT) (MB)    (FT/S) (FT/S)
CAPE MAY NJ      2100   48 47  310/  9/ 14 1015.3R
LEWES DE         2100   51 45  310/ 21/ 24 1015.9R
15NM E FENWICK I 2100   50 46              1015.9R   4/ 8
OCEAN-CITY-INLET 2100   53 46  330/ 13/ 20 1015.9R
WACHAPREAGUE VA  2100   54 50  280/  1/  6 1017.2F
THOMAS POINT MD  2100   51 43  300/ 15/ 17 1018.4R
GOOSES REEF MD   2100   50     VRB 12/ 16  1016.2R
COVE POINT MD    2100   53     330/ 11/ 12 1016.9S
SOLOMONS ISLAND  2100      44                N/A
BISHOPS HEAD MD  2100   49 47  300/  6/  9 1016.9R
PINEY POINT MD   2100          320/  8/  8   N/A
POTOMAC MD       2100   49     330/  8/  8 1016.5F
CAMBRIDGE MD     2100   51 42  300/ 11/ 15 1017.0R
LEWISETTA VA     2100   53 44  340/  5/  7 1017.3R
RAPPAHANNOCK LGT 2100          340/  5/  5 1018.3R
STINGRAY PT      2100   51     310/  8/ 12 1018.4R
YORK RVR RNG VA  2100   54     310/ 10/ 12 1017.3R
YORKTOWN VA      2100   55 46  310/ 11/ 13 1017.5F
JAMESTOWN VA     2100   51     310/ 10/ 12   N/A
DOMINION TERM VA 2100   53     330/ 10/ 12 1017.8R
KIPTOPEKE VA     2100      51  330/  6/  8   N/A
CHES BAY BRIDGE  2100   52 46  270/  8/  9 1017.4R
CAPE HENRY VA    2100   54     270/  9/ 12 1016.5S
CHESAPEAKE LGHT  2000   53     290/ 11/ 11 1017.6R
WILLOUBY STN VA  2100   55     290/ 12/ 14 1018.4R
S CRANEY ISL VA  2100          310/  5/  7 1018.1R
CAPE HENRY BUOY  2100      49                N/A     2/ 6
1ST LANDING BUOY 2100   51     310/  6/  6 1017.5R
CAPE CHARLES BUO 2100      48                N/A     2/ 8   2/ 8
64NM E OF VA BCH 2100   53 53  320/  6/  8 1017.6R   5/ 9   5/ 9
DUCK PIER NC     2100   56 51  300/ 11/ 13 1017.1S
44100 DUCK FRF   2000      51                N/A     3/ 9   2/11
44056 DUCK FRF   2100      51                N/A     2/ 9
OREGON INLET NC  2100   56 55  300/  9/ 12 1018.0S
HATTERAS NC      2100   55 58  350/  5/  7 1018.7S
DIAMOND SHLS NC  2100   58                 1018.5R   6/ 9
CAPE LOOKOUT NC  2000   57     260/ 12/ 13 1017.9R
$$


USA.gov is the U.S. government's official web portal to all federal, state and local government web resources and services.